Temp
40 36 28 37 40 40 38 35 33 38 44 43 41 43 45 44 47 46 46 45 48 54 56 60 61 61 62 62 63 64 64 64 63 62 61 61 62 63 63 64 65 65 66 66
35 32 40 42 44 41 37 32 33 38 42 42 42 40 41 43 45 46 46 44 45 49 52 57 59 60 60 60 62 63 63 62 63 64 63 63 63 63 65 66 65 66 66 66
33 38 42 41 41 38 35 33 32 35 41 43 41 36 40 43 45 47 48 49 46 46 48 51 53 54 56 57 59 61 62 62 63 63 63 63 63 63 62 63 64 65 67 67
34 40 38 38 39 38 33 41 36 37 39 32 37 28 33 39 40 42 44 46 46 45 46 49 50 51 52 53 55 58 60 60 61 62 62 62 61 60 62 64 65 66 67 66
35 36 35 34 37 39 37 41 39 39 35 36 33 30 32 37 35 38 42 45 47 47 46 46 48 49 51 52 53 55 56 56 57 60 60 60 60 61 62 62 63 62 62 62
35 40 37 36 41 40 42 39 39 37 35 27 32 32 31 33 35 36 42 43 44 47 46 47 48 49 49 50 51 52 53 53 54 54 55 56 57 58 59 60 59 59 58 58
33 35 39 39 35 40 38 32 20 21 25 26 32 31 30 37 40 40 40 43 44 44 47 45 45 48 48 48 48 51 51 51 51 52 52 52 52 54 55 56 56 56 55 55
27 24 35 40 35 33 33 32 24 15 21 26 32 26 31 39 43 45 44 44 44 44 45 46 47 46 47 49 48 49 50 50 50 51 50 51 51 52 52 52 53 54 54 54
27 27 37 36 38 36 34 30 34 27 22 23 27 32 39 42 43 44 44 44 44 45 45 45 46 47 48 47 49 48 48 49 49 50 50 49 50 51 50 51 51 51 51 52
34 26 33 36 37 37 34 38 28 26 13 16 25 27 29 36 38 40 40 41 43 45 45 46 47 47 48 48 49 49 49 48 48 48 49 48 49 49 49 50 48 49 49 49
36 33 31 34 31 28 31 31 32 30 28 21 19 25 36 37 39 38 39 41 41 42 43 45 46 47 47 48 47 48 48 48 48 48 48 48 47 47 48 47 47 47 47 47
37 32 22 26 33 33 31 28 30 24 23 25 26 25 39 39 40 40 40 41 41 42 43 43 43 44 46 46 46 47 46 46 46 47 47 47 47 47 47 46 46 47 46 46
37 23 15 22 29 32 30 32 33 31 30 24 21 24 38 38 38 40 39 40 41 41 42 43 43 42 42 43 43 44 44 44 45 46 46 46 46 46 45 45 45 45 45 44
40 29 25 19 24 27 26 30 32 30 21 26 26 27 32 35 36 37 38 40 40 41 42 42 42 42 42 42 41 42 42 42 43 44 45 46 46 46 45 45 44 44 44 43
34 20 24 27 28 29 29 30 30 28 29 23 27 28 32 34 35 35 37 39 40 41 41 41 41 41 41 41 41 42 42 41 41 42 43 44 44 44 44 43 42 42 42 41
32 18 24 19 27 26 23 29 29 30 31 29 29 28 35 34 35 34 37 38 39 39 40 41 41 41 41 40 40 40 40 40 40 40 40 41 42 42 42 41 41 40 39 39
28 21 15 14 20 17 14 24 28 28 28 30 28 33 35 33 35 35 35 37 37 38 39 40 40 40 39 39 38 38 38 38 38 39 39 39 40 41 41 40 39 38 38 38
24 16 5 9 8 6 26 26 28 28 28 31 32 33 34 34 34 36 36 37 37 38 39 38 38 38 39 38 37 36 37 37 36 36 36 36 36 38 39 39 38 38 37 37
31 24 4 9 -4 17 26 26 27 28 28 32 31 33 34 33 33 32 38 37 37 38 39 38 37 37 36 36 35 34 36 35 35 34 34 34 34 35 36 36 36 36 36 35
30 28 17 0 3 4 25 29 32 33 22 34 33 33 32 33 28 31 36 37 39 38 38 38 37 36 35 36 34 34 35 34 35 33 33 33 33 34 35 35 35 34 35 34
18 9 6 6 1 13 28 32 33 19 27 34 34 33 32 33 34 37 36 37 37 37 37 36 34 35 35 35 34 34 34 35 34 33 32 32 32 33 34 34 33 33 33 32
19 11 5 2 3 11 31 30 28 33 33 35 34 35 35 36 36 35 35 36 36 36 36 35 35 35 35 34 33 33 33 35 32 31 31 28 27 30 31 29 28 30 31 30
19 24 19 20 20 32 31 32 34 35 35 35 36 36 37 36 35 34 35 34 35 35 35 34 33 33 33 33 32 30 33 32 28 24 24 23 25 27 28 29 28 29 30 32
23 27 22 24 29 29 33 34 34 35 36 36 36 36 35 35 35 35 34 34 34 34 34 33 32 32 32 30 29 29 30 25 22 23 23 22 24 25 25 28 29 29 30 31
26 28 23 22 29 30 32 33 35 35 35 34 34 35 35 34 35 34 33 33 33 33 32 29 27 28 28 26 26 25 25 20 24 23 23 24 24 25 25 28 28 28 27 31
27 26 26 25 33 34 35 36 35 35 35 35 34 33 34 34 34 33 32 32 31 30 27 25 24 22 27 25 25 27 18 20 22 24 25 25 24 23 24 26 29 31 34 35
MSLP
1019.31 1019.49 1019.28 1018.87 1018.53 1018.02 1017.19 1016.74 1015.73 1014.66 1014.33 1014.32 1014.14 1014.76 1015.08 1016.02 1017.01 1014.42 1014.29 1014.38 1013.78 1013.55 1013.86 1012.89 1013.02 1013.44 1013.64 1013.86 1014.22 1014.64 1015.13 1015.50 1016.03 1016.69 1017.13 1017.55 1017.67 1017.86 1017.98 1018.11 1018.20 1018.41 1018.60 1018.75
1019.73 1019.31 1018.75 1018.57 1018.07 1017.53 1017.09 1016.41 1015.14 1013.85 1014.05 1014.37 1014.45 1015.24 1016.26 1016.91 1016.76 1015.51 1014.13 1015.77 1015.13 1015.04 1014.30 1013.75 1013.37 1013.60 1013.90 1013.98 1014.27 1014.57 1014.92 1015.29 1015.67 1016.18 1016.61 1016.92 1017.17 1017.36 1017.32 1017.43 1017.66 1017.81 1017.93 1018.05
1019.91 1019.24 1018.43 1018.20 1017.74 1017.14 1016.68 1016.10 1015.34 1014.29 1013.86 1014.15 1014.67 1016.02 1016.47 1017.48 1016.61 1015.37 1015.07 1016.26 1016.70 1016.40 1015.51 1015.25 1014.78 1014.52 1014.54 1014.71 1014.73 1014.83 1014.91 1015.26 1015.58 1016.04 1016.44 1016.82 1017.02 1017.12 1017.25 1017.35 1017.31 1017.15 1017.19 1017.28
1019.84 1018.99 1018.49 1018.09 1017.62 1017.35 1016.53 1015.96 1015.34 1014.51 1014.20 1014.83 1015.81 1016.91 1017.43 1017.32 1016.82 1016.47 1016.47 1016.73 1017.41 1016.59 1017.18 1016.80 1016.33 1015.83 1015.42 1015.43 1015.34 1015.31 1015.39 1015.61 1015.74 1015.93 1016.23 1016.49 1016.67 1016.79 1016.93 1016.99 1016.91 1016.77 1016.86 1016.91
1019.90 1019.33 1018.57 1018.07 1017.68 1017.23 1016.65 1015.97 1015.63 1015.19 1015.02 1015.55 1016.24 1016.65 1017.88 1017.52 1017.73 1018.05 1018.40 1018.61 1019.70 1018.72 1017.83 1017.24 1017.17 1017.73 1016.72 1016.38 1016.39 1016.04 1015.82 1016.53 1016.28 1016.23 1016.26 1016.44 1016.57 1016.61 1016.78 1016.83 1016.89 1016.97 1017.07 1017.27
1020.02 1019.27 1018.81 1018.08 1017.20 1017.03 1016.35 1016.03 1015.79 1015.68 1015.82 1016.79 1017.26 1017.26 1018.21 1018.49 1019.13 1019.29 1019.12 1018.62 1017.51 1018.59 1019.09 1018.27 1018.46 1018.22 1017.68 1017.44 1017.32 1016.90 1016.78 1016.97 1016.83 1016.90 1016.76 1016.73 1016.95 1016.90 1016.94 1017.01 1017.15 1017.35 1017.55 1017.53
1020.57 1019.45 1018.72 1018.19 1017.59 1016.86 1016.55 1016.59 1017.17 1016.99 1017.09 1018.00 1017.67 1017.72 1019.64 1019.43 1019.36 1019.61 1019.28 1019.34 1019.34 1019.09 1018.80 1019.19 1019.79 1019.15 1018.65 1018.02 1017.65 1017.71 1017.37 1017.45 1017.51 1017.72 1017.49 1017.32 1017.20 1017.58 1017.54 1017.73 1017.71 1017.78 1017.79 1017.65
1021.53 1020.19 1019.29 1018.62 1018.39 1018.35 1017.89 1017.87 1018.58 1019.09 1019.07 1018.96 1018.52 1019.64 1020.38 1020.16 1019.97 1019.69 1019.84 1019.71 1019.48 1019.35 1019.62 1019.80 1020.34 1019.99 1018.42 1018.46 1018.32 1018.31 1018.09 1017.71 1017.61 1017.18 1017.61 1018.18 1017.40 1017.89 1017.96 1017.94 1018.31 1018.31 1018.10 1018.48
1021.56 1020.64 1019.50 1018.91 1018.63 1018.58 1018.15 1018.36 1018.87 1019.53 1020.19 1019.99 1020.59 1020.57 1020.18 1020.19 1020.20 1019.98 1019.82 1019.88 1020.12 1020.20 1020.09 1020.32 1020.07 1019.59 1019.19 1019.58 1019.06 1019.39 1018.95 1018.51 1018.21 1018.36 1018.82 1018.77 1018.10 1017.91 1018.55 1018.54 1018.86 1018.83 1018.68 1018.55
1022.13 1021.61 1020.19 1019.33 1018.91 1018.72 1018.77 1018.90 1019.09 1019.59 1020.68 1021.13 1021.26 1020.94 1020.89 1020.68 1020.74 1020.65 1020.64 1021.01 1020.87 1020.61 1020.28 1020.20 1019.96 1019.77 1019.69 1019.51 1019.25 1019.47 1019.86 1019.59 1019.21 1018.91 1018.93 1018.80 1018.62 1018.99 1019.40 1019.18 1019.09 1018.94 1019.07 1018.98
1022.25 1022.23 1021.04 1020.49 1020.49 1020.31 1019.87 1019.60 1019.96 1020.35 1020.77 1020.95 1021.26 1021.47 1020.84 1020.90 1021.08 1021.24 1021.43 1021.57 1021.66 1021.31 1020.99 1020.87 1020.36 1020.48 1020.44 1020.58 1020.18 1019.73 1019.71 1019.72 1019.36 1019.38 1019.36 1019.08 1018.90 1018.87 1019.01 1019.10 1019.12 1018.93 1019.11 1019.42
1022.58 1022.74 1022.41 1021.80 1021.19 1020.96 1020.74 1020.69 1020.67 1020.87 1021.38 1021.20 1021.19 1021.53 1020.83 1021.00 1021.17 1021.40 1021.81 1021.97 1021.79 1021.83 1021.68 1021.44 1021.47 1021.31 1021.24 1021.05 1020.34 1020.03 1019.93 1019.71 1019.54 1019.49 1019.47 1019.24 1018.81 1019.12 1019.33 1019.25 1019.20 1019.10 1019.32 1019.35
1022.95 1023.56 1023.34 1022.74 1022.27 1021.66 1021.50 1021.28 1020.95 1021.03 1021.26 1021.47 1021.46 1021.71 1021.17 1021.30 1021.53 1021.90 1022.03 1022.05 1021.97 1021.93 1021.66 1021.44 1021.29 1021.49 1021.60 1021.56 1021.22 1020.76 1020.45 1020.11 1020.00 1019.78 1019.71 1019.69 1019.91 1019.90 1019.77 1019.61 1019.66 1019.71 1019.86 1019.89
1023.34 1024.07 1024.42 1024.24 1024.01 1023.71 1022.71 1022.03 1021.54 1021.44 1021.72 1021.66 1021.38 1021.39 1021.49 1021.74 1022.04 1022.29 1022.31 1022.22 1022.24 1022.22 1022.17 1022.08 1021.97 1022.07 1022.15 1021.89 1021.63 1021.37 1021.25 1020.99 1020.59 1020.04 1019.86 1019.80 1019.67 1019.68 1019.71 1019.82 1020.06 1020.18 1020.06 1020.03
1023.99 1025.09 1025.48 1025.19 1024.87 1024.48 1023.67 1022.74 1022.08 1021.67 1021.65 1021.99 1021.63 1021.55 1021.63 1021.77 1022.19 1022.46 1022.56 1022.52 1022.48 1022.40 1022.31 1022.28 1022.26 1022.29 1022.08 1022.08 1021.92 1021.86 1021.65 1021.39 1021.16 1020.86 1020.62 1020.50 1020.33 1020.24 1020.21 1020.25 1020.41 1020.56 1020.62 1020.76
1024.74 1025.89 1026.61 1026.79 1026.11 1025.49 1024.62 1023.23 1022.45 1021.96 1021.54 1021.61 1021.79 1021.95 1021.68 1021.96 1022.27 1022.61 1022.76 1022.70 1022.59 1022.60 1022.59 1022.64 1022.56 1022.31 1022.36 1022.38 1022.34 1022.11 1021.98 1021.74 1021.50 1021.16 1021.00 1020.64 1020.25 1020.06 1020.10 1020.33 1020.60 1020.84 1020.97 1021.17
1025.91 1026.83 1028.20 1028.52 1027.67 1026.45 1025.23 1023.06 1022.23 1021.71 1021.44 1021.17 1021.57 1021.55 1021.83 1022.21 1022.39 1022.54 1022.65 1022.51 1022.62 1022.76 1022.76 1022.79 1022.85 1022.83 1022.86 1022.83 1022.75 1022.57 1022.39 1022.18 1021.80 1021.52 1021.22 1020.95 1020.65 1020.46 1020.38 1020.41 1020.60 1020.86 1021.09 1021.24
1026.56 1028.03 1029.31 1030.31 1029.38 1027.50 1024.10 1022.90 1022.10 1021.58 1021.46 1021.41 1021.30 1021.54 1021.94 1022.19 1022.35 1022.43 1022.48 1022.41 1022.47 1022.58 1022.75 1022.94 1023.01 1022.96 1022.93 1022.96 1022.91 1022.81 1022.55 1022.25 1022.01 1021.79 1021.56 1021.35 1021.17 1020.79 1020.43 1020.48 1020.65 1020.89 1021.11 1021.35
1026.48 1028.08 1030.57 1031.63 1030.74 1027.51 1023.79 1022.91 1022.28 1021.58 1021.44 1021.27 1021.61 1021.84 1022.17 1022.51 1022.61 1022.77 1022.53 1022.43 1022.50 1022.62 1022.74 1022.89 1023.03 1023.19 1023.28 1023.20 1023.00 1022.81 1022.48 1022.25 1022.00 1021.94 1021.88 1021.68 1021.37 1021.07 1020.82 1020.76 1020.87 1021.02 1021.22 1021.52
1027.03 1028.02 1029.72 1032.12 1031.32 1027.99 1023.99 1022.34 1021.57 1021.27 1021.31 1021.10 1021.38 1021.90 1022.29 1022.51 1022.96 1022.70 1022.19 1022.23 1022.36 1022.47 1022.61 1022.75 1022.85 1023.06 1023.11 1022.98 1023.04 1022.90 1022.63 1022.39 1022.12 1022.00 1021.93 1021.77 1021.61 1021.33 1021.04 1020.92 1020.97 1020.99 1021.16 1021.51
1027.84 1029.31 1030.49 1031.33 1029.95 1026.39 1023.17 1022.11 1021.62 1021.53 1021.32 1020.86 1021.20 1021.72 1022.28 1022.55 1022.29 1022.15 1022.24 1022.47 1022.55 1022.67 1022.79 1022.93 1023.11 1023.36 1023.28 1023.16 1023.10 1022.94 1022.69 1022.47 1022.28 1022.23 1022.06 1021.92 1021.72 1021.41 1020.99 1020.98 1021.07 1021.17 1021.42 1021.69
1026.63 1028.09 1029.44 1029.95 1028.55 1025.48 1022.32 1022.37 1021.73 1020.61 1020.58 1020.69 1021.07 1021.32 1021.78 1021.93 1021.99 1022.12 1022.35 1022.65 1022.74 1022.77 1022.70 1022.77 1022.98 1022.93 1022.76 1022.92 1022.95 1022.73 1022.64 1022.17 1022.12 1022.09 1021.98 1021.93 1021.79 1021.57 1021.40 1021.27 1021.28 1021.39 1021.61 1021.91
1025.37 1024.88 1025.64 1025.79 1024.25 1022.56 1021.78 1021.23 1020.65 1020.38 1020.39 1020.67 1020.71 1020.95 1021.19 1021.76 1022.01 1022.17 1022.38 1022.52 1022.53 1022.67 1022.71 1022.68 1022.86 1022.76 1022.39 1022.55 1022.70 1022.68 1022.04 1022.04 1022.20 1022.48 1022.46 1022.18 1021.91 1021.74 1021.63 1021.61 1021.67 1021.90 1021.94 1022.08
1023.90 1023.67 1023.99 1023.94 1021.97 1021.80 1021.27 1020.92 1020.57 1020.43 1020.38 1020.42 1020.55 1020.90 1021.24 1021.59 1021.86 1022.13 1022.45 1022.72 1022.86 1022.89 1022.94 1022.94 1023.01 1023.05 1022.88 1022.49 1022.50 1022.35 1021.92 1021.94 1022.21 1022.21 1022.11 1022.02 1021.99 1021.95 1021.84 1021.75 1021.75 1021.73 1021.86 1022.03
1022.42 1022.65 1022.79 1022.41 1021.43 1021.29 1020.72 1020.38 1020.18 1020.36 1020.50 1020.63 1020.78 1021.07 1021.38 1021.79 1022.04 1022.33 1022.60 1022.81 1022.89 1022.92 1022.83 1022.90 1023.32 1023.35 1022.91 1022.40 1022.12 1021.71 1021.56 1021.80 1022.00 1021.84 1021.71 1021.70 1021.72 1021.67 1021.71 1021.64 1021.59 1021.62 1021.54 1021.55
1021.11 1020.78 1021.03 1020.25 1019.52 1019.49 1019.19 1019.17 1019.55 1020.30 1020.39 1020.72 1021.28 1021.61 1021.67 1021.97 1022.27 1022.51 1022.85 1023.00 1023.18 1023.23 1023.07 1023.33 1023.27 1023.13 1022.35 1022.04 1021.75 1021.32 1021.21 1021.41 1021.58 1021.52 1021.21 1021.00 1021.02 1021.07 1021.17 1021.10 1021.14 1021.22 1021.14 1021.17
Wind_Speed
2 1 2 6 8 11 13 11 16 7 6 4 8 6 7 16 10 17 17 14 14 11 9 2 7 5 7 9 10 12 12 11 9 4 3 3 5 5 5 6 9 8 8 8
4 2 4 8 8 11 6 11 10 11 6 8 9 11 13 8 8 16 20 14 17 12 14 12 4 5 5 6 7 9 10 10 8 6 3 3 3 3 4 5 7 9 8 9
1 5 6 4 7 14 5 7 8 5 9 5 11 4 5 5 9 16 22 14 14 14 15 13 13 10 10 9 3 4 5 5 5 6 3 2 2 1 1 3 4 8 11 9
4 4 4 4 7 5 6 11 7 9 2 4 5 5 1 4 12 19 16 18 13 18 15 9 13 11 11 9 9 9 7 3 3 5 4 4 3 3 2 3 2 3 5 6
4 5 5 2 6 4 6 6 3 5 4 3 6 5 4 7 10 12 11 13 7 7 10 14 14 13 10 9 9 5 10 7 8 1 3 3 3 2 2 2 3 1 1 3
5 4 3 3 7 5 11 3 2 2 3 4 6 1 3 5 5 4 7 14 18 16 8 11 8 10 8 7 6 6 8 7 6 6 6 5 5 5 3 2 3 1 1 2
7 5 6 2 5 5 8 5 4 6 6 4 10 8 4 9 6 5 7 6 7 11 11 10 10 9 6 8 8 7 7 6 6 5 5 6 6 5 5 4 2 2 2 1
5 6 7 7 1 3 5 3 3 1 2 2 7 7 6 4 6 3 2 2 4 8 7 6 3 2 10 10 8 6 6 6 6 8 9 5 6 3 2 4 3 2 1 2
3 5 5 3 3 2 7 5 2 5 2 4 3 1 1 2 3 4 6 6 5 3 3 5 4 6 5 4 7 6 7 8 6 4 3 1 4 7 5 5 2 0 2 2
1 6 3 6 2 2 3 2 3 4 3 3 2 4 2 4 5 6 9 7 7 7 9 8 8 8 6 5 3 4 2 4 1 3 4 3 4 4 3 3 4 5 3 4
2 1 6 2 5 2 6 4 4 3 2 3 3 0 2 2 3 6 6 5 5 6 7 8 8 7 7 5 6 5 5 4 5 4 2 3 3 4 4 4 3 5 5 4
1 1 3 2 3 2 1 1 1 4 3 2 2 3 2 3 5 6 5 4 4 4 5 5 5 6 8 8 9 8 7 6 6 5 4 4 5 4 3 4 4 4 5 5
2 2 4 8 6 4 5 3 1 1 2 1 4 4 2 3 6 5 6 5 5 5 6 6 8 8 7 8 8 9 9 8 6 4 3 3 2 1 2 3 3 4 5 5
2 1 4 4 3 2 3 4 3 2 3 3 3 5 3 4 6 5 5 5 5 5 6 5 6 5 4 5 6 7 7 6 7 7 5 4 2 1 2 2 3 3 3 4
2 2 0 0 2 3 3 3 3 2 1 3 2 7 5 6 7 5 4 4 5 6 7 6 6 5 5 5 5 5 5 5 6 5 4 3 2 1 3 4 3 3 3 3
1 2 1 3 2 3 4 7 4 3 3 4 2 1 4 3 5 5 6 5 6 6 6 6 6 7 7 7 6 6 7 7 5 5 5 5 4 1 2 3 4 4 5 4
2 4 3 4 4 4 6 8 7 3 1 6 5 5 5 4 6 6 5 5 4 3 4 6 6 6 6 6 5 7 7 5 6 5 6 6 5 3 2 4 4 4 4 4
5 4 3 3 5 2 6 1 1 3 1 3 3 5 3 4 2 5 3 4 1 2 4 5 3 4 5 5 5 5 5 5 5 5 6 6 6 5 2 2 4 4 3 4
1 5 4 4 3 7 5 4 6 6 4 6 5 3 4 4 4 1 5 3 2 3 4 4 3 3 4 6 5 6 6 5 5 5 5 5 5 5 3 2 3 2 3 3
5 5 5 4 5 6 5 2 3 2 2 6 6 7 7 4 3 5 3 1 4 4 3 5 5 4 6 5 4 5 5 5 5 5 5 5 4 4 4 2 4 3 3 4
3 4 6 2 2 10 7 4 2 6 6 5 7 7 7 5 5 4 2 4 3 4 6 4 3 5 6 5 4 6 6 6 5 4 4 4 4 5 3 2 1 3 4 5
7 7 4 4 3 9 6 3 6 4 2 6 6 7 6 4 4 2 4 5 6 7 6 4 5 6 6 4 3 6 6 5 4 5 5 4 4 3 2 3 2 2 5 5
4 7 7 10 8 3 6 1 2 4 6 5 6 5 6 5 4 2 4 5 5 6 6 4 4 7 7 5 4 6 6 3 2 2 4 3 4 3 2 2 3 2 3 4
4 4 3 3 4 7 5 4 4 5 5 4 3 5 5 5 4 4 5 6 5 5 5 2 4 7 8 6 5 7 7 2 2 4 5 3 1 2 2 0 1 2 4 3
4 9 7 5 5 4 6 8 6 7 3 3 3 5 4 3 5 5 5 6 6 6 5 3 4 6 9 6 7 6 6 4 6 5 5 5 4 4 3 3 3 3 3 4
6 9 7 8 8 7 6 10 9 7 7 7 6 4 4 5 7 4 6 5 5 6 5 4 5 6 10 6 8 8 3 6 5 6 5 5 4 4 4 3 3 8 9 9
Wind_Direction
305 1 309 320 317 296 268 279 268 224 245 248 218 167 62 19 287 41 49 7 21 35 349 159 183 183 166 168 173 186 187 180 172 162 164 181 219 220 219 224 226 223 230 228
14 320 311 306 309 332 281 281 307 258 208 202 151 131 87 34 332 50 56 23 20 358 10 16 79 158 181 171 176 175 184 171 180 180 169 167 171 207 216 218 220 223 222 226
230 279 323 341 343 349 315 307 333 299 90 69 120 52 121 192 26 48 51 44 30 4 11 6 30 45 56 53 86 162 153 152 165 156 138 143 143 147 173 227 229 225 225 223
247 299 336 348 350 342 328 344 342 11 95 69 351 133 248 74 53 36 31 36 22 15 3 17 15 24 43 35 42 53 52 84 151 158 164 179 182 196 211 227 236 245 222 228
288 317 336 349 283 319 262 333 342 45 49 109 15 89 334 15 33 31 20 57 41 53 10 11 25 343 29 30 28 26 65 23 19 354 193 216 234 230 226 245 270 304 347 2
270 275 246 261 285 247 284 288 250 5 73 74 341 274 36 30 29 11 42 22 31 20 7 18 5 336 7 37 27 17 60 30 29 11 11 22 354 1 351 310 277 249 143 74
327 314 310 321 338 321 14 21 349 3 45 19 338 53 31 17 39 28 48 35 25 46 31 38 2 358 4 37 30 4 37 34 32 47 24 13 31 3 0 344 350 330 290 52
352 334 353 334 71 292 320 42 109 113 44 16 1 26 17 316 328 327 132 91 46 19 43 39 142 340 17 3 23 21 11 58 19 28 25 359 43 11 44 15 346 323 28 313
357 273 308 256 310 55 318 38 282 112 349 69 7 144 45 235 1 45 58 41 26 29 35 51 17 27 57 18 17 8 5 6 38 79 94 123 33 43 23 10 20 94 72 78
322 298 276 295 345 3 44 296 14 7 68 68 53 60 72 20 33 45 52 39 25 33 39 31 35 32 28 22 30 45 53 136 111 53 36 34 88 124 148 116 66 67 54 51
331 132 293 3 15 348 346 8 33 112 66 135 117 324 218 147 114 97 69 61 42 41 34 27 28 21 21 18 14 25 24 25 35 42 75 79 61 50 70 81 87 95 86 55
50 3 259 252 277 237 241 354 36 105 280 44 89 226 127 164 127 114 97 91 73 56 52 53 35 29 30 17 19 27 26 27 19 17 15 17 39 62 73 71 81 78 75 73
23 331 356 347 353 6 44 336 326 74 52 225 122 233 113 122 91 77 96 65 53 51 45 39 38 32 25 18 18 18 11 9 1 3 28 45 52 77 98 117 121 113 121 113
79 128 176 190 220 311 323 338 359 46 86 184 201 150 146 130 109 100 81 68 56 46 40 36 39 31 18 12 8 8 8 3 353 355 353 349 353 53 109 97 90 103 116 116
108 160 189 165 14 320 286 283 330 64 51 118 209 157 197 167 153 157 141 100 68 40 32 23 17 5 8 14 12 4 1 352 347 354 6 341 314 202 148 139 121 92 75 71
31 162 89 335 350 0 292 283 267 244 163 115 66 133 173 117 102 126 134 109 66 36 19 5 4 6 7 3 356 353 355 353 347 3 3 346 336 247 180 156 149 138 128 112
81 128 77 271 340 346 332 229 193 192 216 141 171 201 174 138 148 158 138 102 82 38 3 353 345 340 343 348 345 352 339 331 356 2 357 357 351 330 224 173 156 150 140 119
130 92 67 232 12 2 250 299 109 162 228 211 116 145 126 139 138 136 162 143 135 323 323 323 316 322 331 334 336 322 331 347 358 7 357 356 348 342 329 180 177 149 143 151
90 122 76 120 186 287 301 194 181 175 209 192 188 140 128 123 91 46 201 203 239 265 272 261 274 274 302 311 326 335 340 344 359 5 351 343 344 334 320 228 186 165 145 137
82 60 112 76 132 215 249 213 209 165 322 174 166 167 155 147 116 249 229 240 289 302 289 304 315 314 316 315 325 329 324 332 340 340 328 326 329 332 323 251 175 155 144 140
88 24 146 163 218 288 233 213 180 97 223 154 156 156 152 171 193 184 162 294 295 287 305 300 305 287 278 297 308 307 312 308 304 310 317 338 347 337 353 111 129 139 126 121
160 142 176 94 86 271 169 95 184 200 133 142 145 154 168 189 181 240 276 278 305 305 311 311 307 300 290 285 279 291 292 287 311 323 326 340 343 342 352 131 110 116 127 126
208 181 177 185 209 256 209 256 240 157 147 178 145 165 169 176 214 211 258 276 285 297 301 305 288 304 301 304 249 283 268 268 300 318 296 305 328 347 7 125 129 112 130 152
240 157 182 104 236 218 218 224 231 205 181 153 129 164 168 197 201 268 289 289 289 288 290 266 299 297 295 296 270 239 272 249 231 259 259 259 244 309 329 220 178 158 176 179
176 140 172 265 274 297 236 220 207 218 193 171 183 183 194 195 255 242 273 285 281 285 283 267 256 264 268 283 278 255 253 193 238 240 236 233 221 212 219 225 212 197 219 189
188 174 169 214 198 181 207 200 190 187 195 201 178 190 225 203 239 251 271 274 279 287 293 296 265 257 275 274 280 284 227 200 224 248 242 226 211 207 208 201 226 243 235 233